Regional Weather Roundup
Issued by NWS Northern Indiana

Home | Current Version | Previous Version | Graphics & Text | Print | Product List | Glossary Off
Versions: 1 2 3 4 5 6 7 8 9 10 11 12 13 14 15 16 17 18 19 20 21 22 23 24 25 26 27 28 29 30 31 32 33 34 35 36 37 38 39 40 41 42 43 44 45 46 47 48 49 50

000
ASUS43 KIWX 251410
RWRIWX

KIWX WEATHER ROUNDUP
NATIONAL WEATHER SERVICE NORTHERN INDIANA
1000 AM EDT THU AUG 25 2016

NOTE: "FAIR" INDICATES FEW OR NO CLOUDS BELOW 12,000 FEET WITH NO
SIGNIFICANT WEATHER AND/OR OBSTRUCTIONS TO VISIBILITY.

* THESE STATIONS ARE NOT UNDER NWS QUALITY CONTROL. THEY ALSO MAY NOT
  REPORT WEATHER SUCH AS PRECIPITATION OR FOG.

INZ001>027-251500-
NORTHERN INDIANA

CITY           SKY/WX    TMP DP  RH WIND       PRES   REMARKS
GARY*          CLOUDY    75  72  88 SW10      30.00S
VALPARAISO     MOSUNNY   74  70  87 SW12      30.02S
MICHIGAN CITY* PTSUNNY   73  73 100 MISG      30.00F
LAPORTE*       CLOUDY    76  76 100 SW8       30.01F
KNOX*          MOSUNNY   72  55  56 SW8       30.00F
SOUTH BEND     PTSUNNY   73  70  90 SW12      30.00F
ELKHART*       CLOUDY    73  70  88 SW12      30.00F
GOSHEN         PTSUNNY   76  69  79 SW10      30.01S
MONTICELLO*    SUNNY     74  67  80 SW10      30.04S
LOGANSPORT*    CLOUDY    75  72  88 SW7       30.05R
ROCHESTER*     CLOUDY    77  73  88 SW8       30.03S
WARSAW*        CLOUDY    73  73 100 W9        30.03R
ANGOLA*        SUNNY     77  72  83 W5        30.01S
FORT WAYNE     PTSUNNY   76  70  82 SW8       30.02S
HUNTINGTON*    SUNNY    N/A N/A N/A SW6       30.02R
PERU/GRISSOM   CLOUDY    76  73  91 SW9       30.03R
MARION*        MOSUNNY   76  73  91 SW8       30.04R

$$
INZ028>050-251500-
CENTRAL INDIANA

CITY           SKY/WX    TMP DP  RH WIND       PRES   REMARKS
LAFAYETTE      SUNNY     74  71  91 W7        30.05R
MUNCIE*        SUNNY     80  74  81 VRB7      30.04S
INDIANAPOLIS   MOSUNNY   81  72  74 SW10      30.05F

$$
MIZ043>046-050>051-056>058-064>065-071>073-077>080-251500-
SOUTHWEST LOWER MICHIGAN

CITY           SKY/WX    TMP DP  RH WIND       PRES   REMARKS
BATTLE CREEK   CLOUDY    71  70  96 SW10      29.99S
BENTON HARBOR  CLOUDY    75  70  84 SW13      29.98S
COLDWATER*     MOSUNNY   74  71  89 SW7       30.01R
HILLSDALE*     CLOUDY    76  70  82 SW5       30.00F
HOLLAND        CLOUDY    76  72  87 SW6       29.97F
GRAND RAPIDS   CLOUDY    74  71  91 SW12      29.97S
KALAMAZOO      CLOUDY    73  69  87 SW10      29.98S
STURGIS*       MOSUNNY   74  69  85 W6        30.00S
THREE RIVERS*  PTSUNNY   73  71  92 SW3       30.00S

$$
OHZ001>008-015>018-024>025-251500-
NORTHWEST OHIO

CITY           SKY/WX    TMP DP  RH WIND       PRES   REMARKS
WAUSEON*       FAIR      77  72  83 SW7       30.00F
DEFIANCE       MOSUNNY   75  71  87 S6        30.01S
FINDLAY        CLOUDY    76  72  87 SW6       30.02R
TOLEDO EXPRESS CLOUDY    75  73  93 S6        30.00S
TOLEDO METCALF CLOUDY    74  72  93 SW8       30.02R
LIMA           MOSUNNY   76  74  93 SW7       30.04S

$$
AND FOR LAKE MICHIGAN COASTAL AND OPEN LAKE BUOY OBSERVATIONS

STATION/POSITION TEMP    WIND        PRES    VSBY  WAVE
                 AIR SEA DIR/SP/G                  HT/PER
                 (F)     (DEG/KT/KT) (MB)    (MI)  (FT/S)
CALUMET HARBOR    72     220/  6/  9 1015.1R
MICHIGAN CITY     71     190/  6/  7   N/A
BURNS HARBOR      73     210/ 10/ 16 1015.9F
SAINT JOSEPH      74     230/ 14/ 17 1015.2F
SOUTH LAKE BUOY   73 74  350/  8/ 10 1014.4R         1/ 4
4 MI NW BRIDGMAN  73 74  230/ 14/ 19 1014.8F         3/ 4
MICHIGAN CITY     73 74  220/ 10/ 12   N/A           1/ 2

$$
&&




USA.gov is the U.S. government's official web portal to all federal, state and local government web resources and services.